| time (UTC) | temp C | wind direction | speed KPH | gust KPH | rain 1hr cm | rain 24hr cm | rain mn cm | humidity % | barometer mb |
| 20260505035003 | 22 | 80 | 1.6 | 6.4 | 0.00 | 0.05 | 0.05 | 76 | 1014.2 |
| 20260505034502 | 22 | 75 | 1.6 | 8.0 | 0.00 | 0.05 | 0.05 | 76 | 1014.2 |
| 20260505034002 | 22 | 78 | 3.2 | 8.0 | 0.00 | 0.05 | 0.05 | 76 | 1014.1 |
| 20260505033502 | 22 | 73 | 3.2 | 8.0 | 0.00 | 0.05 | 0.05 | 76 | 1014.1 |
| 20260505033003 | 22 | 76 | 3.2 | 8.0 | 0.00 | 0.05 | 0.05 | 75 | 1014.1 |
| 20260505032502 | 22 | 84 | 4.8 | 8.0 | 0.00 | 0.05 | 0.05 | 75 | 1014.1 |
| 20260505032002 | 22 | 89 | 3.2 | 8.0 | 0.00 | 0.05 | 0.05 | 75 | 1014.1 |
| 20260505031502 | 23 | 93 | 3.2 | 8.0 | 0.00 | 0.05 | 0.05 | 74 | 1014.2 |
| 20260505031023 | 23 | 88 | 3.2 | 9.7 | 0.00 | 0.05 | 0.05 | 74 | 1014.2 |
| 20260505030502 | 23 | 86 | 3.2 | 9.7 | 0.00 | 0.05 | 0.05 | 74 | 1014.0 |
| 20260505030023 | 23 | 90 | 4.8 | 9.7 | 0.00 | 0.05 | 0.05 | 73 | 1014.3 |
| 20260505025523 | 23 | 95 | 4.8 | 9.7 | 0.00 | 0.05 | 0.05 | 73 | 1014.2 |
| 20260505025002 | 23 | 102 | 4.8 | 16.1 | 0.00 | 0.05 | 0.05 | 73 | 1014.1 |
| 20260505024502 | 23 | 98 | 4.8 | 16.1 | 0.00 | 0.05 | 0.05 | 73 | 1014.1 |
| 20260505024002 | 23 | 91 | 3.2 | 11.3 | 0.00 | 0.05 | 0.05 | 72 | 1014.0 |
| 20260505023502 | 23 | 97 | 4.8 | 11.3 | 0.00 | 0.05 | 0.05 | 72 | 1013.9 |
| 20260505023002 | 23 | 100 | 4.8 | 14.5 | 0.00 | 0.08 | 0.05 | 72 | 1013.7 |
| 20260505022503 | 23 | 103 | 4.8 | 14.5 | 0.00 | 0.08 | 0.05 | 72 | 1013.8 |
| 20260505022003 | 23 | 105 | 3.2 | 11.3 | 0.00 | 0.08 | 0.05 | 72 | 1013.8 |
| 20260505021503 | 24 | 102 | 3.2 | 11.3 | 0.00 | 0.08 | 0.05 | 72 | 1013.9 |
| 20260505021002 | 24 | 89 | 3.2 | 11.3 | 0.00 | 0.08 | 0.05 | 72 | 1013.9 |
| 20260505020502 | 24 | 84 | 4.8 | 11.3 | 0.00 | 0.08 | 0.05 | 71 | 1013.9 |
| 20260505020002 | 24 | 86 | 4.8 | 11.3 | 0.00 | 0.08 | 0.05 | 72 | 1013.9 |
| 20260505015502 | 24 | 87 | 3.2 | 9.7 | 0.00 | 0.08 | 0.05 | 72 | 1013.8 |
| 20260505015003 | 24 | 101 | 4.8 | 17.7 | 0.00 | 0.08 | 0.05 | 71 | 1013.6 |
| 20260505014502 | 24 | 102 | 4.8 | 17.7 | 0.00 | 0.08 | 0.05 | 71 | 1013.6 |
| 20260505014002 | 24 | 92 | 4.8 | 9.7 | 0.00 | 0.08 | 0.05 | 71 | 1013.6 |
| 20260505013502 | 24 | 95 | 4.8 | 14.5 | 0.00 | 0.08 | 0.05 | 71 | 1013.5 |
| 20260505013002 | 24 | 94 | 4.8 | 14.5 | 0.00 | 0.08 | 0.05 | 71 | 1013.3 |
| 20260505012503 | 24 | 96 | 4.8 | 14.5 | 0.00 | 0.08 | 0.05 | 71 | 1013.2 |
| 20260505012003 | 25 | 108 | 4.8 | 14.5 | 0.00 | 0.08 | 0.05 | 71 | 1013.3 |
| 20260505011503 | 25 | 108 | 4.8 | 14.5 | 0.00 | 0.08 | 0.05 | 71 | 1013.3 |
| 20260505011003 | 25 | 96 | 4.8 | 14.5 | 0.00 | 0.08 | 0.05 | 71 | 1013.2 |
| 20260505010523 | 25 | 91 | 4.8 | 11.3 | 0.00 | 0.08 | 0.05 | 71 | 1013.2 |
| 20260505010024 | 25 | 91 | 4.8 | 11.3 | 0.00 | 0.08 | 0.05 | 70 | 1013.2 |
| 20260505005502 | 25 | 93 | 4.8 | 14.5 | 0.00 | 0.08 | 0.05 | 70 | 1013.1 |
| 20260505005002 | 25 | 93 | 4.8 | 14.5 | 0.00 | 0.08 | 0.05 | 70 | 1012.9 |
| 20260505004523 | 25 | 92 | 6.4 | 16.1 | 0.00 | 0.08 | 0.05 | 70 | 1013.0 |
| 20260505004023 | 25 | 93 | 8.0 | 20.9 | 0.00 | 0.08 | 0.05 | 69 | 1012.7 |
| 20260505003502 | 25 | 86 | 6.4 | 20.9 | 0.00 | 0.08 | 0.05 | 69 | 1012.8 |
| 20260505003003 | 25 | 80 | 6.4 | 19.3 | 0.00 | 0.08 | 0.05 | 69 | 1012.7 |
| 20260505002502 | 26 | 83 | 4.8 | 11.3 | 0.00 | 0.08 | 0.05 | 69 | 1012.7 |
| 20260505002003 | 26 | 88 | 4.8 | 11.3 | 0.00 | 0.08 | 0.05 | 68 | 1012.7 |
| 20260505001502 | 26 | 84 | 4.8 | 11.3 | 0.00 | 0.08 | 0.05 | 68 | 1012.5 |
| 20260505001002 | 26 | 90 | 6.4 | 16.1 | 0.00 | 0.08 | 0.05 | 68 | 1012.3 |
| 20260505000502 | 26 | 95 | 4.8 | 16.1 | 0.00 | 0.08 | 0.05 | 67 | 1012.2 |
| 20260505000023 | 26 | 87 | 4.8 | 17.7 | 0.00 | 0.08 | 0.05 | 67 | 1012.2 |
| 20260504235502 | 26 | 86 | 6.4 | 17.7 | 0.00 | 0.08 | 0.05 | 66 | 1012.2 |
| 20260504235002 | 26 | 88 | 8.0 | 24.1 | 0.00 | 0.08 | 0.05 | 66 | 1012.2 |
| 20260504234502 | 26 | 95 | 6.4 | 24.1 | 0.00 | 0.08 | 0.05 | 65 | 1012.2 |
| 20260504234002 | 27 | 98 | 6.4 | 17.7 | 0.00 | 0.08 | 0.05 | 64 | 1012.0 |
| 20260504233524 | 27 | 93 | 6.4 | 17.7 | 0.00 | 0.08 | 0.05 | 64 | 1011.9 |
| 20260504233003 | 27 | 91 | 6.4 | 14.5 | 0.00 | 0.08 | 0.05 | 63 | 1011.8 |
| 20260504232503 | 27 | 88 | 6.4 | 16.1 | 0.00 | 0.08 | 0.05 | 63 | 1011.8 |
| 20260504232003 | 27 | 87 | 6.4 | 16.1 | 0.00 | 0.08 | 0.05 | 62 | 1011.7 |
| 20260504231502 | 27 | 88 | 4.8 | 12.9 | 0.00 | 0.08 | 0.05 | 62 | 1011.7 |
| 20260504231003 | 27 | 87 | 4.8 | 12.9 | 0.00 | 0.08 | 0.05 | 61 | 1011.7 |
| 20260504230502 | 28 | 84 | 4.8 | 11.3 | 0.00 | 0.08 | 0.05 | 61 | 1011.6 |
| 20260504230002 | 28 | 86 | 4.8 | 11.3 | 0.00 | 0.08 | 0.05 | 61 | 1011.5 |
| 20260504225523 | 28 | 84 | 4.8 | 12.9 | 0.00 | 0.08 | 0.05 | 61 | 1011.5 |
| 20260504225002 | 28 | 80 | 6.4 | 12.9 | 0.00 | 0.08 | 0.05 | 60 | 1011.4 |
| 20260504224502 | 28 | 82 | 4.8 | 11.3 | 0.00 | 0.08 | 0.05 | 59 | 1011.5 |
| 20260504224002 | 28 | 82 | 6.4 | 17.7 | 0.00 | 0.08 | 0.05 | 59 | 1011.6 |
| 20260504223502 | 28 | 83 | 4.8 | 17.7 | 0.00 | 0.08 | 0.05 | 58 | 1011.6 |
| 20260504223024 | 28 | 81 | 3.2 | 11.3 | 0.00 | 0.08 | 0.05 | 57 | 1011.6 |
| 20260504222503 | 28 | 103 | 3.2 | 9.7 | 0.00 | 0.10 | 0.05 | 55 | 1011.6 |
| 20260504222023 | 28 | 110 | 3.2 | 9.7 | 0.00 | 0.10 | 0.05 | 55 | 1011.6 |
| 20260504221502 | 28 | 95 | 4.8 | 14.5 | 0.00 | 0.10 | 0.05 | 54 | 1011.6 |
| 20260504221002 | 28 | 94 | 4.8 | 14.5 | 0.00 | 0.10 | 0.05 | 55 | 1011.6 |
| 20260504220502 | 28 | 86 | 4.8 | 11.3 | 0.00 | 0.10 | 0.05 | 55 | 1011.6 |
| 20260504220002 | 29 | 81 | 6.4 | 14.5 | 0.00 | 0.10 | 0.05 | 55 | 1011.6 |
| 20260504215503 | 29 | 73 | 6.4 | 19.3 | 0.00 | 0.10 | 0.05 | 55 | 1011.7 |
| 20260504215023 | 30 | 72 | 6.4 | 19.3 | 0.00 | 0.10 | 0.05 | 55 | 1011.6 |
| 20260504214502 | 30 | 63 | 6.4 | 16.1 | 0.00 | 0.10 | 0.05 | 55 | 1011.5 |
| 20260504214003 | 30 | 59 | 6.4 | 16.1 | 0.00 | 0.10 | 0.05 | 55 | 1011.5 |
| 20260504213523 | 30 | 71 | 4.8 | 14.5 | 0.00 | 0.10 | 0.05 | 55 | 1011.5 |
| 20260504213002 | 29 | 80 | 4.8 | 9.7 | 0.00 | 0.10 | 0.05 | 56 | 1011.6 |
| 20260504212502 | 29 | 93 | 4.8 | 16.1 | 0.00 | 0.10 | 0.05 | 54 | 1011.6 |
| 20260504212003 | 30 | 95 | 4.8 | 16.1 | 0.00 | 0.10 | 0.05 | 53 | 1011.6 |
| 20260504211523 | 30 | 92 | 6.4 | 16.1 | 0.00 | 0.10 | 0.05 | 51 | 1011.7 |
| 20260504211002 | 30 | 87 | 4.8 | 16.1 | 0.00 | 0.10 | 0.05 | 51 | 1011.6 |
| 20260504210502 | 31 | 75 | 4.8 | 11.3 | 0.00 | 0.10 | 0.05 | 49 | 1011.6 |
| 20260504210003 | 31 | 81 | 4.8 | 11.3 | 0.00 | 0.10 | 0.05 | 48 | 1011.7 |
| 20260504205524 | 30 | 91 | 6.4 | 16.1 | 0.00 | 0.10 | 0.05 | 49 | 1011.9 |
| 20260504205003 | 31 | 84 | 4.8 | 16.1 | 0.00 | 0.10 | 0.05 | 48 | 1011.9 |
| 20260504204502 | 30 | 72 | 4.8 | 9.7 | 0.00 | 0.10 | 0.05 | 52 | 1011.9 |
| 20260504204003 | 30 | 76 | 4.8 | 9.7 | 0.00 | 0.10 | 0.05 | 53 | 1011.9 |
| 20260504203503 | 30 | 79 | 4.8 | 14.5 | 0.00 | 0.10 | 0.05 | 53 | 1011.9 |
| 20260504203024 | 30 | 80 | 6.4 | 14.5 | 0.00 | 0.10 | 0.05 | 52 | 1011.9 |
| 20260504202502 | 30 | 84 | 4.8 | 14.5 | 0.00 | 0.10 | 0.05 | 49 | 1011.9 |
| 20260504202002 | 31 | 94 | 3.2 | 11.3 | 0.00 | 0.10 | 0.05 | 50 | 1012.0 |
| 20260504201502 | 30 | 77 | 3.2 | 11.3 | 0.00 | 0.10 | 0.05 | 49 | 1012.1 |
| 20260504201003 | 30 | 80 | 4.8 | 11.3 | 0.00 | 0.10 | 0.05 | 49 | 1012.2 |
| 20260504200503 | 31 | 89 | 4.8 | 11.3 | 0.00 | 0.10 | 0.05 | 48 | 1012.2 |
| 20260504200002 | 31 | 84 | 4.8 | 16.1 | 0.00 | 0.13 | 0.05 | 50 | 1012.2 |
| 20260504195502 | 30 | 86 | 4.8 | 16.1 | 0.00 | 0.13 | 0.05 | 50 | 1012.2 |
| 20260504195002 | 30 | 75 | 6.4 | 16.1 | 0.00 | 0.13 | 0.05 | 51 | 1012.3 |
| 20260504194503 | 31 | 69 | 6.4 | 12.9 | 0.00 | 0.13 | 0.05 | 49 | 1012.4 |
| 20260504194002 | 30 | 69 | 6.4 | 16.1 | 0.00 | 0.13 | 0.05 | 52 | 1012.4 |
| 20260504193503 | 31 | 79 | 4.8 | 16.1 | 0.00 | 0.13 | 0.05 | 50 | 1012.6 |
| 20260504193002 | 31 | 79 | 8.0 | 17.7 | 0.00 | 0.13 | 0.05 | 50 | 1012.6 |
| 20260504192503 | 30 | 72 | 8.0 | 20.9 | 0.00 | 0.13 | 0.05 | 52 | 1012.6 |
| 20260504192002 | 31 | 72 | 4.8 | 20.9 | 0.00 | 0.13 | 0.05 | 51 | 1012.6 |
| 20260504191503 | 31 | 76 | 6.4 | 16.1 | 0.00 | 0.13 | 0.05 | 51 | 1012.7 |
| 20260504191003 | 30 | 70 | 8.0 | 20.9 | 0.00 | 0.13 | 0.05 | 51 | 1012.8 |
| 20260504190503 | 30 | 71 | 8.0 | 20.9 | 0.00 | 0.13 | 0.05 | 51 | 1012.9 |
| 20260504190003 | 31 | 91 | 6.4 | 16.1 | 0.00 | 0.13 | 0.05 | 50 | 1013.0 |
| 20260504185503 | 31 | 97 | 4.8 | 16.1 | 0.00 | 0.13 | 0.05 | 51 | 1013.2 |
| 20260504185023 | 31 | 75 | 6.4 | 19.3 | 0.00 | 0.13 | 0.05 | 50 | 1013.2 |
| 20260504184502 | 30 | 61 | 9.7 | 20.9 | 0.00 | 0.13 | 0.05 | 51 | 1013.3 |
| 20260504184002 | 30 | 72 | 8.0 | 20.9 | 0.00 | 0.13 | 0.05 | 51 | 1013.3 |
| 20260504183503 | 31 | 112 | 4.8 | 16.1 | 0.03 | 0.13 | 0.05 | 50 | 1013.4 |
| 20260504183003 | 30 | 120 | 6.4 | 17.7 | 0.03 | 0.13 | 0.05 | 51 | 1013.4 |
| 20260504182502 | 30 | 99 | 6.4 | 17.7 | 0.03 | 0.13 | 0.05 | 49 | 1013.7 |
| 20260504182002 | 30 | 90 | 4.8 | 16.1 | 0.03 | 0.13 | 0.05 | 53 | 1013.7 |
| 20260504181502 | 30 | 86 | 6.4 | 17.7 | 0.03 | 0.13 | 0.05 | 53 | 1013.9 |
| 20260504181002 | 30 | 81 | 6.4 | 17.7 | 0.03 | 0.13 | 0.05 | 53 | 1014.0 |
| 20260504180502 | 30 | 81 | 6.4 | 17.7 | 0.03 | 0.13 | 0.05 | 52 | 1013.9 |
| 20260504180003 | 30 | 74 | 6.4 | 17.7 | 0.03 | 0.13 | 0.05 | 53 | 1014.0 |
| 20260504175502 | 30 | 70 | 6.4 | 19.3 | 0.03 | 0.13 | 0.05 | 53 | 1014.1 |
| 20260504175003 | 30 | 77 | 8.0 | 19.3 | 0.03 | 0.13 | 0.05 | 54 | 1014.1 |
| 20260504174502 | 29 | 78 | 8.0 | 17.7 | 0.03 | 0.13 | 0.05 | 54 | 1014.3 |
| 20260504174003 | 29 | 72 | 6.4 | 19.3 | 0.03 | 0.13 | 0.05 | 53 | 1014.3 |
| 20260504173502 | 29 | 75 | 4.8 | 19.3 | 0.00 | 0.10 | 0.03 | 53 | 1014.3 |
| 20260504173002 | 30 | 81 | 4.8 | 24.1 | 0.00 | 0.13 | 0.03 | 54 | 1014.3 |
| 20260504172502 | 29 | 90 | 8.0 | 24.1 | 0.00 | 0.13 | 0.03 | 54 | 1014.3 |
| 20260504172003 | 30 | 85 | 8.0 | 24.1 | 0.00 | 0.13 | 0.03 | 53 | 1014.3 |
| 20260504171502 | 30 | 62 | 6.4 | 24.1 | 0.00 | 0.13 | 0.03 | 53 | 1014.4 |
| 20260504171024 | 29 | 62 | 8.0 | 22.5 | 0.00 | 0.13 | 0.03 | 55 | 1014.4 |
| 20260504170504 | 29 | 65 | 9.7 | 22.5 | 0.00 | 0.13 | 0.03 | 54 | 1014.7 |
| 20260504151002 | 27 | 64 | 8.0 | 24.1 | 0.00 | 0.15 | 0.03 | 59 | 1015.3 |
| 20260504150502 | 27 | 62 | 9.7 | 20.9 | 0.00 | 0.15 | 0.03 | 61 | 1015.4 |
| 20260504141002 | 25 | 67 | 8.0 | 20.9 | 0.00 | 0.15 | 0.03 | 67 | 1015.2 |
| 20260504140502 | 25 | 64 | 9.7 | 20.9 | 0.00 | 0.15 | 0.03 | 68 | 1015.1 |
| 20260504130502 | 22 | 62 | 8.0 | 17.7 | 0.00 | 0.15 | 0.03 | 74 | 1014.8 |
| 20260504110503 | 18 | 64 | 3.2 | 8.0 | 0.00 | 0.20 | 0.03 | 83 | 1014.3 |
| 20260504100502 | 18 | 58 | 4.8 | 12.9 | 0.00 | 0.20 | 0.03 | 83 | 1013.7 |
| 20260504082002 | 18 | 58 | 3.2 | 14.5 | 0.03 | 0.23 | 0.03 | 85 | 1013.7 |
| 20260504081502 | 18 | 57 | 3.2 | 14.5 | 0.03 | 0.23 | 0.03 | 85 | 1013.5 |
| 20260504081002 | 19 | 57 | 3.2 | 11.3 | 0.03 | 0.23 | 0.03 | 85 | 1013.7 |
| 20260504080503 | 19 | 59 | 4.8 | 11.3 | 0.03 | 0.23 | 0.03 | 85 | 1013.7 |
| 20260504050503 | 20 | 53 | 1.6 | 8.0 | 0.00 | 0.28 | 0.00 | 84 | 1015.2 |
| 20260504050002 | 20 | 49 | 1.6 | 8.0 | 0.00 | 0.28 | 0.00 | 84 | 1014.9 |
| 20260504045523 | 20 | 46 | 1.6 | 4.8 | 0.00 | 0.28 | 0.00 | 84 | 1014.8 |
| 20260504045002 | 20 | 46 | 1.6 | 4.8 | 0.00 | 0.28 | 0.00 | 84 | 1014.9 |
| 20260504044504 | 20 | 46 | 1.6 | 4.8 | 0.00 | 0.28 | 0.00 | 84 | 1015.2 |
| 20260504044003 | 20 | 46 | 1.6 | 4.8 | 0.00 | 0.28 | 0.00 | 83 | 1015.3 |
| 20260504043502 | 20 | 46 | 1.6 | 4.8 | 0.00 | 0.28 | 0.00 | 83 | 1015.3 |
| 20260504043024 | 20 | 46 | 1.6 | 4.8 | 0.00 | 0.28 | 0.00 | 83 | 1015.3 |
| 20260504042503 | 20 | 46 | 1.6 | 3.2 | 0.00 | 0.28 | 0.00 | 83 | 1015.3 |
| 20260504042002 | 20 | 46 | 1.6 | 3.2 | 0.00 | 0.30 | 0.00 | 83 | 1015.3 |
| 20260504041502 | 20 | 46 | 1.6 | 4.8 | 0.00 | 0.30 | 0.00 | 83 | 1015.3 |
| 20260504041023 | 21 | 53 | 1.6 | 6.4 | 0.00 | 0.30 | 0.00 | 83 | 1015.3 |
| 20260504040503 | 21 | 61 | 1.6 | 6.4 | 0.00 | 0.30 | 0.00 | 83 | 1015.3 |
| 20260504040003 | 21 | 63 | 1.6 | 4.8 | 0.00 | 0.30 | 0.00 | 82 | 1015.4 |
| 20260504035502 | 21 | 58 | 3.2 | 8.0 | 0.00 | 0.30 | 0.30 | 82 | 1015.3 |